Location: Saint Mary
(48.7436°N, 113.4291°W)
Time: 19:13:59
(UTC+00:00)

Envisat - Visible Passes

Search period start: 22 January 2022 00:00
Search period end: 01 February 2022 00:00
Orbit: 764 x 766 km, 98.2° (Epoch: 22 January)

Date Brightness Start Highest point End Pass type
(mag) Time Alt. Az. Time Alt. Az. Time Alt. Az.
22 Jan 4.5 11:50:18 10° NNE 11:54:55 34° E 11:59:30 10° SSE visible
22 Jan 3.5 13:29:17 10° N 13:33:57 37° WNW 13:38:35 10° SW visible
23 Jan 5.8 00:49:20 10° SW 00:52:55 19° W 00:56:31 10° NW visible
23 Jan 5.6 11:14:25 10° NE 11:17:40 17° E 11:20:54 10° SE visible
23 Jan 2.8 12:52:09 10° N 12:57:14 74° WNW 13:02:18 10° SSW visible
23 Jan 4.6 14:33:05 10° NNW 14:35:24 13° NW 14:37:43 10° W visible
24 Jan 3.6 12:15:19 10° NNE 12:20:20 55° E 12:25:19 10° S visible
24 Jan 4.0 13:54:58 10° N 13:59:00 24° WNW 14:03:02 10° WSW visible
25 Jan 6.3 01:16:58 10° WSW 01:18:34 11° W 01:20:09 10° WNW visible
25 Jan 4.9 11:38:53 10° NE 11:43:13 27° E 11:47:31 10° SSE visible
25 Jan 3.2 13:17:35 10° N 13:22:26 45° WNW 13:27:14 10° SW visible
26 Jan 5.8 11:03:27 10° ENE 11:05:54 13° E 11:08:21 10° ESE visible
26 Jan 2.9 12:40:32 10° NNE 12:45:39 90° NNW 12:50:45 10° SSW visible
26 Jan 4.5 14:20:58 10° NNW 14:23:58 16° NW 14:26:58 10° W visible
27 Jan 4.0 12:03:48 10° NNE 12:08:41 44° E 12:13:32 10° S visible
27 Jan 3.8 13:43:11 10° N 13:47:31 29° WNW 13:51:51 10° WSW visible
28 Jan 6.0 01:04:05 10° WSW 01:06:48 14° W 01:09:32 10° NW visible
28 Jan 5.2 11:27:34 10° NE 11:31:31 22° E 11:35:26 10° SE visible
28 Jan 3.0 13:05:54 10° N 13:10:53 56° WNW 13:15:50 10° SSW visible
29 Jan 6.0 10:53:11 10° ENE 10:54:08 10° E 10:55:04 10° E visible
29 Jan 3.1 12:28:57 10° NNE 12:34:03 74° ESE 12:39:07 10° S visible
29 Jan 4.3 14:09:01 10° NNW 14:12:32 19° WNW 14:16:02 10° WSW visible
30 Jan 4.4 11:52:20 10° NNE 11:57:01 36° E 12:01:40 10° SSE visible
30 Jan 3.5 13:31:26 10° N 13:36:01 35° WNW 13:40:36 10° SW visible
31 Jan 5.5 11:16:21 10° NE 11:19:48 18° E 11:23:12 10° SE visible
31 Jan 2.9 12:54:15 10° N 12:59:19 69° WNW 13:04:22 10° SSW visible
